TimeEDT,TemperatureF,Dew PointF,Humidity,Sea Level PressureIn,VisibilityMPH,Wind Direction,Wind SpeedMPH,Gust SpeedMPH,PrecipitationIn,Events,Conditions,WindDirDegrees,DateUTC
12:15 AM,45.1,42.4,90,30.03,10.0,Calm,Calm,-,N/A,,Clear,0,2013-04-06 04:15:00
12:35 AM,45.0,42.8,92,30.04,10.0,Calm,Calm,-,N/A,,Clear,0,2013-04-06 04:35:00
12:55 AM,44.1,42.3,93,30.04,10.0,Calm,Calm,-,N/A,,Clear,0,2013-04-06 04:55:00
1:15 AM,43.7,41.9,93,30.04,10.0,Calm,Calm,-,N/A,,Clear,0,2013-04-06 05:15:00
1:35 AM,43.2,41.4,93,30.04,10.0,Calm,Calm,-,N/A,,Clear,0,2013-04-06 05:35:00
2:15 AM,41.9,41.0,97,30.04,10.0,Calm,Calm,-,N/A,,Clear,0,2013-04-06 06:15:00
2:35 AM,41.9,41.0,97,30.04,10.0,Calm,Calm,-,N/A,,Clear,0,2013-04-06 06:35:00
2:55 AM,41.7,40.5,95,30.04,10.0,Calm,Calm,-,N/A,,Clear,0,2013-04-06 06:55:00
3:15 AM,41.7,39.7,93,30.05,10.0,Calm,Calm,-,N/A,,Clear,0,2013-04-06 07:15:00
3:35 AM,41.5,39.7,93,30.05,10.0,Calm,Calm,-,N/A,,Clear,0,2013-04-06 07:35:00
3:55 AM,41.0,39.2,93,30.05,10.0,Calm,Calm,-,N/A,,Clear,0,2013-04-06 07:55:00
4:15 AM,41.0,39.2,93,30.06,10.0,Calm,Calm,-,N/A,,Clear,0,2013-04-06 08:15:00
4:35 AM,41.5,39.7,93,30.06,10.0,Calm,Calm,-,N/A,,Clear,0,2013-04-06 08:35:00
4:55 AM,41.2,39.4,93,30.06,10.0,Calm,Calm,-,N/A,,Clear,0,2013-04-06 08:55:00
5:15 AM,44.1,42.8,95,30.06,10.0,NW,3.5,-,N/A,,Clear,320,2013-04-06 09:15:00
5:35 AM,42.8,41.5,95,30.07,10.0,Calm,Calm,-,N/A,,Clear,0,2013-04-06 09:35:00
5:55 AM,41.9,40.3,94,30.08,10.0,Calm,Calm,-,N/A,,Clear,0,2013-04-06 09:55:00
6:15 AM,43.2,42.1,96,30.08,10.0,NW,4.6,-,N/A,,Clear,320,2013-04-06 10:15:00
6:35 AM,42.1,41.0,96,30.09,10.0,Calm,Calm,-,N/A,,Clear,0,2013-04-06 10:35:00
6:55 AM,42.1,41.2,97,30.11,10.0,Calm,Calm,-,N/A,,Clear,0,2013-04-06 10:55:00
7:15 AM,43.0,40.8,92,30.11,10.0,Calm,Calm,-,N/A,,Clear,0,2013-04-06 11:15:00
7:35 AM,43.3,40.6,90,30.13,10.0,Calm,Calm,-,N/A,,Clear,0,2013-04-06 11:35:00
7:55 AM,43.7,41.0,90,30.14,10.0,North,3.5,-,N/A,,Clear,350,2013-04-06 11:55:00
8:15 AM,44.6,41.2,88,30.16,10.0,Calm,Calm,-,N/A,,Clear,0,2013-04-06 12:15:00
8:35 AM,46.0,42.3,87,30.17,10.0,Calm,Calm,-,N/A,,Clear,0,2013-04-06 12:35:00
8:55 AM,49.1,43.3,81,30.17,10.0,NE,4.6,-,N/A,,Clear,50,2013-04-06 12:55:00
9:15 AM,52.2,42.1,69,30.18,10.0,ENE,5.8,-,N/A,,Clear,60,2013-04-06 13:15:00
9:35 AM,54.0,39.4,58,30.19,10.0,ENE,5.8,-,N/A,,Clear,70,2013-04-06 13:35:00
10:15 AM,57.2,32.9,40,30.21,10.0,ENE,6.9,17.3,N/A,,Clear,60,2013-04-06 14:15:00
10:35 AM,58.6,31.8,36,30.21,10.0,ENE,8.1,-,N/A,,Clear,70,2013-04-06 14:35:00
10:55 AM,59.7,32.0,35,30.22,10.0,East,8.1,-,N/A,,Clear,80,2013-04-06 14:55:00
11:15 AM,61.0,31.8,33,30.23,10.0,ENE,5.8,-,N/A,,Clear,70,2013-04-06 15:15:00
11:35 AM,62.1,32.9,34,30.23,10.0,NNE,5.8,-,N/A,,Clear,30,2013-04-06 15:35:00
11:55 AM,62.2,32.4,33,30.23,10.0,East,5.8,-,N/A,,Clear,80,2013-04-06 15:55:00
12:15 PM,62.8,32.4,32,30.24,10.0,ENE,6.9,-,N/A,,Clear,70,2013-04-06 16:15:00
12:35 PM,63.9,31.8,30,30.23,10.0,NNE,5.8,-,N/A,,Clear,20,2013-04-06 16:35:00
12:55 PM,64.8,32.0,29,30.23,10.0,ENE,5.8,-,N/A,,Clear,70,2013-04-06 16:55:00
1:15 PM,65.1,32.0,29,30.23,10.0,ENE,6.9,-,N/A,,Clear,70,2013-04-06 17:15:00
1:35 PM,65.3,31.8,29,30.22,10.0,East,5.8,-,N/A,,Clear,80,2013-04-06 17:35:00
1:55 PM,65.5,32.5,29,30.22,10.0,ENE,3.5,-,N/A,,Clear,70,2013-04-06 17:55:00
2:15 PM,66.2,32.4,28,30.22,10.0,ENE,3.5,-,N/A,,Clear,60,2013-04-06 18:15:00
2:35 PM,66.9,32.2,27,30.21,10.0,ENE,5.8,-,N/A,,Clear,70,2013-04-06 18:35:00
2:55 PM,66.6,31.6,27,30.21,10.0,SE,3.5,-,N/A,,Clear,140,2013-04-06 18:55:00
3:15 PM,67.3,32.4,27,30.20,10.0,East,3.5,-,N/A,,Clear,90,2013-04-06 19:15:00
3:35 PM,67.1,32.5,28,30.19,10.0,East,8.1,-,N/A,,Clear,80,2013-04-06 19:35:00
3:55 PM,67.8,32.7,27,30.19,10.0,ENE,4.6,-,N/A,,Clear,60,2013-04-06 19:55:00
4:15 PM,67.8,32.9,27,30.19,10.0,Calm,Calm,-,N/A,,Clear,0,2013-04-06 20:15:00
4:35 PM,67.8,31.8,26,30.18,10.0,Calm,Calm,-,N/A,,Clear,0,2013-04-06 20:35:00
4:55 PM,68.2,32.2,26,30.18,10.0,East,6.9,-,N/A,,Clear,80,2013-04-06 20:55:00
5:15 PM,68.2,32.9,27,30.18,10.0,NE,4.6,-,N/A,,Clear,40,2013-04-06 21:15:00
5:35 PM,68.0,32.5,27,30.18,10.0,Calm,Calm,-,N/A,,Clear,0,2013-04-06 21:35:00
5:55 PM,67.1,32.5,28,30.18,10.0,Calm,Calm,-,N/A,,Clear,0,2013-04-06 21:55:00
6:15 PM,67.1,32.9,28,30.19,10.0,NE,3.5,-,N/A,,Clear,40,2013-04-06 22:15:00
6:35 PM,66.6,32.7,28,30.19,10.0,Calm,Calm,-,N/A,,Clear,0,2013-04-06 22:35:00
6:55 PM,66.0,33.8,30,30.19,10.0,ENE,4.6,-,N/A,,Clear,70,2013-04-06 22:55:00
7:15 PM,63.7,33.8,33,30.20,10.0,Calm,Calm,-,N/A,,Clear,0,2013-04-06 23:15:00
7:35 PM,62.2,40.5,45,30.21,10.0,SE,6.9,-,N/A,,Clear,140,2013-04-06 23:35:00
7:55 PM,60.1,41.5,50,30.22,10.0,ESE,5.8,-,N/A,,Clear,120,2013-04-06 23:55:00
8:15 PM,58.1,41.9,55,30.22,10.0,ESE,4.6,-,N/A,,Clear,110,2013-04-07 00:15:00
8:35 PM,57.4,41.9,56,30.24,10.0,ESE,5.8,-,N/A,,Clear,110,2013-04-07 00:35:00
8:55 PM,56.3,42.1,59,30.25,10.0,SE,4.6,-,N/A,,Clear,130,2013-04-07 00:55:00
9:15 PM,55.6,42.3,61,30.25,10.0,SE,3.5,-,N/A,,Clear,140,2013-04-07 01:15:00
9:35 PM,53.8,42.3,65,30.26,10.0,Calm,Calm,-,N/A,,Clear,0,2013-04-07 01:35:00
9:55 PM,52.2,42.8,70,30.27,10.0,SE,3.5,-,N/A,,Clear,140,2013-04-07 01:55:00
10:15 PM,52.2,42.4,69,30.27,10.0,SE,5.8,-,N/A,,Clear,130,2013-04-07 02:15:00
10:35 PM,50.7,40.5,68,30.29,10.0,SE,3.5,-,N/A,,Clear,140,2013-04-07 02:35:00
10:55 PM,50.0,41.0,71,30.28,10.0,SE,3.5,-,N/A,,Clear,130,2013-04-07 02:55:00
11:15 PM,49.1,40.8,73,30.29,10.0,Calm,Calm,-,N/A,,Clear,0,2013-04-07 03:15:00
11:35 PM,49.1,40.1,71,30.28,10.0,Calm,Calm,-,N/A,,Clear,0,2013-04-07 03:35:00
11:55 PM,48.6,40.1,73,30.28,10.0,ESE,3.5,-,N/A,,Clear,110,2013-04-07 03:55:00